Location: Eschertshofen
(49.3064°N, 11.5756°E)
Time: 04:05:53
(UTC+00:00)

Spot 2 Rocket - Pass Details

Date: 27 June 2021
Orbit: 757 x 772 km, 98.5° (Epoch: 01 August)

Event Time Altitude Azimuth Distance (km) Brightness Sun altitude
Exits shadow 21:07:26 - 191° (S) 2,490 5.7 -11.9°
Reaches altitude 10° 21:07:58 10° 193° (SSW) 2,298 5.5 -11.9°
Maximum altitude 21:12:42 40° 263° (W) 1,132 4.6 -12.3°
Drops below altitude 10° 21:17:30 10° 332° (NNW) 2,323 7.5 -12.7°
Sets 21:19:58 0° 340° (NNW) 3,256 8.7 -12.9°
